Location: Winthrop
(48.4780°N, 120.1850°W)
Time: 04:45:26
(UTC-08:00)

Vanguard 1 Rocket - Pass Details

Date: 30 November 2023
Orbit: 654 x 4218 km, 34.3° (Epoch: 24 February)

Event Time Altitude Azimuth Distance (km) Brightness Sun altitude
Rises 09:38:46 0° 261° (W) 5,993 11.4 14.0°
Reaches altitude 10° 09:44:05 10° 252° (WSW) 4,329 10.8 14.5°
Maximum altitude 09:52:20 27° 200° (SSW) 2,237 10.2 15.1°
Drops below altitude 10° 09:57:34 10° 144° (SE) 2,658 12.1 15.5°
Sets 10:00:00 0° 130° (SE) 3,354 11.6 15.7°
